SCP
0 0 0 0 0 0 0 0 0 0 0 0 0 0 0 0 0 0 0 0 0 0 0 0 0 0 0 0 0 0 0 0 0 0 0 0 0 0 -0 0 0 0 0 0
0 0 0 0 0 0 0 0 0 0 0 0 0 0 0 0 0 0 0 0 0 0 0 0 0 0 0 0 0 0 0 0 0 0 0 0 0 0 -0 0 0 0 0 0
0 0 0 0 0 0 0 0 0 0 0 0 0 0 0 0 0 0 0 0 0 0 0 0 0 0 0 0 0 0 0 0 0 0 0 0 0 0 0 0 0 0 0 0
0 0 0 0 0 0 0 0 0 0 0 0 0 0 0 0 0 0 0 0 0 0 0 0 0 0 0 0 0 0 0 0 0 0 0 0 0 0 0 0 0 0 0 0
0 0 0 0 0 0 0 0 0 0 0 0 0 0 0 0 0 0 0 0 0 0 0 0 0 0 0 0 0 0 0 0 0 0 0 0 0 0 0 0 0 0 0 0
0 0 0 0 0 0 0 0 0 0 0 0 0 0 0 0 0 0 0 0 0 0 0 0 0 0 0 0 0 0 0 0 0 0 0 0 0 0 0 0 0 0 0 0
0 0 0 0 0 0 0 0 0 0 0 0 0 0 0 0 0 0 0 0 0 0 0 0 0 0 0 0 0 0 0 0 0 0 0 0 0 0 0 0 0 0 0 0
0 0 0 0 0 0 0 0 0 0 0 0 0 0 0 0 0 0 0 0 0 0 0 0 0 0 0 0 0 0 0 0 0 0 0 0 0 0 0 0 0 0 0 0
0 0 0 0 0 0 0 0 0 0 0 0 0 0 0 0 0 0 0 0 0 0 0 0 0 0 0 0 0 0 0 0 0 0 0 0 0 0 0 0 0 0 0 0
0 0 0 0 0 0 0 0 0 0 0 0 0 0 0 0 0 0 0 0 0 0 0 0 0 0 0 0 0 0 0 0 0 0 0 0 0 0 0 0 0 0 0 0
0 0 0 0 0 0 0 0 0 0 0 0 0 0 0 0 0 0 0 0 0 0 0 0 0 0 0 0 0 0 0 0 0 0 0 0 0 0 0 0 0 0 0 0
0 0 0 0 0 0 0 0 0 0 0 0 0 0 0 0 0 0 0 0 0 0 0 0 0 0 0 0 0 0 0 0 0 0 0 0 0 0 0 0 0 0 0 0
0 0 0 0 0 0 0 0 0 0 0 0 0 0 0 0 0 0 0 0 0 0 0 0 0 0 0 0 0 0 0 0 0 0 0 0 0 0 0 0 0 0 0 0
0 0 0 0 0 0 0 0 0 0 0 0 0 0 0 0 0 0 0 0 0 0 0 0 0 0 0 0 0 0 0 0 0 0 0 0 0 0 0 0 0 0 0 0
0 0 0 0 0 0 0 0 0 0 0 0 0 0 0 0 0 0 0 0 0 0 0 0 0 0 0 0 0 0 0 0 0 0 0 0 0 0 0 0 0 0 0 0
0 0 0 0 0 0 0 0 0 0 0 0 0 0 0 0 0 0 0 0 0 0 0 0 0 0 0 0 0 0 0 0 0 0 0 0 0 0 0 0 0 0 0 0
0 0 0 0 0 0 0 0 0 0 0 0 0 0 0 0 0 0 0 0 0 0 0 0 0 0 0 0 0 0 0 0 0 0 0 0 0 0 0 0 0 0 0 0
0 0 0 0 0 0 0 0 0 0 0 0 0 0 0 0 0 0 0 0 0 0 0 0 0 0 0 0 0 0 0 0 0 0 0 0 0 0 0 0 0 0 0 0
0 0 0 0 0 0 0 0 0 0 0 0 0 0 0 0 0 0 0 0 0 0 0 0 0 0 0 0 0 0 0 0 0 0 0 0 0 0 0 0 0 0 0 0
0 0 0 0 0 0 0 0 0 0 0 0 0 0 0 0 0 0 0 0 0 0 0 0 0 0 0 0 0 0 0 0 0 0 0 0 0 0 0 0 0 0 0 0
0 0 0 0 0 0 0 0 0 0 0 0 0 0 0 0 0 0 0 0 0 0 0 0 0 0 0 0 0 0 0 0 0 0 0 0 0 0 0 0 0 0 0 0
0 0 0 0 0 0 0 0 0 0 0 0 0 0 0 0 0 0 0 0 0 0 0 0 0 0 0 0 0 0 0 0 0 0 0 0 0 0 0 0 0 0 0 0
0 0 0 0 0 0 0 0 0 0 0 0 0 0 0 0 0 0 0 0 0 0 0 0 0 0 0 0 0 0 0 0 0 0 0 0 0 0 0 0 0 0 0 0
0 0 0 0 0 0 0 0 0 0 0 0 0 0 0 0 0 0 0 0 0 0 0 0 0 0 0 0 0 0 0 0 0 0 0 0 0 0 0 0 0 0 0 0
0 0 0 0 0 0 0 0 0 0 0 0 0 0 0 0 0 0 0 0 0 0 0 0 0 0 0 0 0 0 0 0 0 0 0 0 0 0 0 0 0 0 0 0
0 0 0 0 0 0 0 0 0 0 0 0 0 0 0 0 0 0 0 0 0 0 0 0 0 0 0 0 0 0 0 0 0 0 0 0 0 0 0 0 0 0 0 0
Wind_Speed
2 3 4 7 8 6 4 5 9 10 5 5 11 17 22 12 11 15 14 16 19 17 10 10 10 8 7 6 6 6 4 3 2 1 2 2 3 4 3 3 3 5 5 5
3 6 7 3 4 4 5 5 8 9 2 5 9 15 18 17 12 15 16 19 19 14 11 13 12 9 8 8 7 6 5 4 4 3 2 3 4 4 4 3 4 5 5 6
10 5 4 5 5 6 6 7 7 7 6 4 7 10 10 12 7 8 11 14 15 20 20 18 15 11 9 9 9 7 6 5 4 4 2 3 3 3 3 3 3 4 6 6
8 4 5 5 7 8 7 7 6 3 3 6 3 12 7 11 11 12 11 12 15 15 17 16 16 13 10 10 8 7 6 4 4 3 2 2 2 3 4 4 5 6 7 7
9 5 6 8 8 10 8 2 3 1 3 5 5 11 9 5 10 16 10 11 12 13 16 17 16 14 10 9 8 7 5 4 3 2 2 3 4 4 5 5 7 7 6 7
5 2 6 7 1 5 5 4 4 3 2 7 8 10 12 8 12 11 7 5 8 11 13 13 13 11 9 8 7 6 5 3 2 2 3 4 5 7 8 9 8 7 6 6
5 4 3 5 5 2 4 4 4 7 3 11 3 7 15 13 12 9 10 7 7 10 13 14 15 13 11 10 8 7 5 3 2 3 4 4 6 6 8 9 9 10 9 7
6 9 8 7 9 10 7 9 9 7 8 10 5 14 13 12 10 8 8 7 7 10 13 14 15 14 12 10 8 7 5 3 2 3 4 5 6 5 5 7 9 10 10 10
10 10 0 4 3 11 9 7 5 5 3 9 12 13 11 9 11 10 9 7 10 11 13 13 13 12 10 9 8 8 6 3 3 3 5 6 6 6 7 9 9 9 10 11
11 7 3 1 2 1 5 8 6 6 5 11 15 12 9 9 11 11 10 11 12 9 11 13 13 12 10 8 7 7 5 3 3 4 4 6 5 7 8 9 11 11 12 14
8 8 4 3 13 15 9 6 7 6 6 8 11 18 9 12 11 12 12 12 11 12 14 15 14 12 9 8 8 6 4 2 3 4 5 6 6 6 7 10 11 12 13 14
9 7 9 12 4 2 9 12 14 11 12 8 9 24 8 11 10 10 10 9 9 11 13 13 12 10 9 8 7 6 3 2 3 4 5 5 6 7 9 10 11 13 14 14
12 9 6 8 2 3 7 8 13 10 6 9 12 24 3 4 7 8 9 9 9 11 12 11 11 10 10 9 7 5 3 2 3 4 4 6 7 8 10 11 12 13 14 15
12 11 15 22 14 11 9 10 13 13 11 15 26 32 25 10 17 16 11 12 11 12 13 14 12 10 10 8 7 5 3 2 3 3 5 7 8 9 10 12 12 13 14 15
9 12 15 20 16 10 13 19 20 22 24 24 26 29 34 18 21 18 12 10 10 12 15 16 15 12 10 8 6 4 3 1 2 3 5 7 9 10 11 12 12 13 14 15
7 9 8 16 13 9 15 29 19 26 25 28 28 39 31 23 20 18 15 11 13 15 17 16 16 15 13 10 8 5 2 1 2 3 6 8 10 10 11 12 13 14 14 15
9 9 8 18 10 5 26 28 16 20 16 16 31 41 30 25 26 20 13 13 16 15 15 16 17 15 13 10 8 5 2 1 2 3 5 8 9 10 11 12 13 14 15 16
12 9 7 9 6 20 27 10 19 28 34 26 21 27 27 27 24 11 9 12 14 13 14 16 14 12 11 9 8 5 3 1 2 3 5 6 8 10 11 12 13 14 14 15
16 14 9 9 19 21 30 20 11 13 30 24 21 29 30 24 12 16 13 13 13 12 11 13 13 12 11 10 8 5 3 0 2 4 5 6 8 9 11 12 14 14 14 15
15 15 15 16 20 19 31 12 13 12 35 30 19 28 28 14 10 19 6 8 7 10 13 14 14 14 12 9 8 6 4 2 2 4 6 7 7 7 10 12 14 14 14 15
9 11 20 26 26 17 19 6 14 15 29 13 19 24 21 17 18 4 8 8 11 14 16 16 15 12 11 9 7 6 5 2 2 4 6 7 7 8 10 11 12 13 14 15
19 14 17 15 19 22 13 17 22 28 20 9 10 13 14 14 7 9 11 13 15 16 16 16 14 12 10 9 8 7 5 2 2 4 6 7 7 7 8 10 12 12 13 14
21 24 17 20 20 15 17 26 27 20 19 15 11 11 12 11 12 13 13 15 16 16 15 14 15 13 10 8 7 7 5 3 3 4 5 6 7 7 8 9 11 10 10 10
11 11 12 13 17 19 17 22 24 20 20 14 12 11 14 13 15 15 15 16 16 16 15 14 15 14 11 8 7 6 5 4 3 3 4 5 6 9 9 8 8 8 10 10
13 9 12 20 24 23 25 29 27 15 9 8 9 11 17 16 15 18 17 18 17 15 13 14 14 13 12 10 8 6 5 3 3 2 3 5 5 7 9 9 7 10 9 12
15 17 20 22 21 22 28 27 15 16 18 17 15 13 12 16 19 20 18 18 17 16 15 14 13 13 12 11 9 6 5 4 4 3 4 4 5 6 7 8 10 14 15 21
Wind_Direction
69 90 212 218 199 197 197 229 258 257 246 233 242 256 272 266 220 233 224 215 216 214 195 182 184 182 172 176 179 176 172 188 192 214 270 284 283 274 277 273 298 315 317 328
73 239 224 180 165 168 186 237 262 279 254 230 260 262 266 268 239 228 226 221 216 204 192 191 188 186 183 184 185 181 183 194 196 199 217 233 257 265 263 274 297 299 302 310
195 222 147 151 171 183 210 213 236 258 321 301 313 284 261 271 251 243 231 224 213 203 198 191 189 191 189 189 190 183 187 199 206 211 221 254 258 263 262 274 280 281 287 287
230 236 163 187 207 177 246 231 222 269 316 288 327 288 246 263 286 266 243 225 217 203 196 190 189 191 191 196 190 185 190 200 210 212 224 266 285 283 273 286 284 288 281 277
234 196 177 205 220 178 211 134 159 210 234 279 230 251 271 280 275 271 257 230 219 200 195 192 189 187 189 187 184 186 191 208 223 228 243 274 276 267 280 285 284 284 274 265
251 204 193 204 109 165 137 104 74 65 88 274 225 209 264 226 225 250 263 241 216 195 195 192 185 180 181 178 179 183 192 217 238 262 273 276 282 288 300 306 303 299 286 269
272 252 215 146 116 95 127 113 345 330 311 253 200 229 247 237 232 232 255 267 227 198 193 189 185 182 179 181 184 184 191 226 257 284 288 284 280 281 288 297 299 299 296 288
223 262 214 189 178 170 181 163 174 227 252 278 274 245 247 241 250 246 251 261 241 207 199 196 190 183 181 183 182 180 190 225 259 285 290 285 278 274 278 284 289 289 289 289
196 242 156 192 193 147 157 202 175 159 280 289 264 264 291 263 264 253 245 247 240 216 200 194 185 183 181 182 181 177 184 221 261 279 285 280 275 278 284 287 286 285 285 292
180 232 212 146 106 347 161 145 124 161 221 264 277 265 247 238 245 250 238 234 238 212 198 192 189 185 181 179 170 162 172 212 264 279 275 289 285 282 283 289 289 290 291 292
173 198 230 180 201 188 150 163 175 174 187 199 270 270 199 202 212 228 229 226 225 206 202 197 192 185 175 164 160 162 170 213 261 269 272 279 285 287 287 289 290 292 293 294
181 170 237 230 220 222 193 185 168 188 225 210 238 269 165 197 219 235 239 227 219 207 203 197 188 175 166 164 165 168 172 218 254 268 278 291 297 297 294 291 293 295 295 294
154 162 237 294 262 209 224 214 207 215 194 195 223 264 180 227 257 246 240 236 221 208 201 192 186 179 171 169 169 169 177 222 260 275 295 303 300 297 296 297 298 299 298 297
155 177 205 230 231 176 208 219 204 197 215 228 233 251 261 254 268 263 238 231 222 209 202 196 191 180 172 168 166 169 184 213 265 295 310 304 301 301 300 300 300 300 301 302
160 215 229 243 242 173 206 224 204 208 221 229 244 249 257 260 262 271 266 237 219 209 205 201 190 177 167 161 162 169 177 219 294 315 310 303 305 303 301 302 303 305 305 304
188 224 244 255 244 198 244 249 216 221 232 238 251 259 260 269 275 272 264 246 231 219 210 199 186 176 170 166 163 158 162 253 326 309 307 311 305 304 305 308 310 311 309 307
188 196 218 253 244 163 244 243 219 230 219 211 240 255 268 269 265 262 257 236 230 220 206 191 182 171 160 152 143 142 144 15 321 304 299 298 302 307 311 315 316 314 312 309
187 192 210 247 218 234 254 229 216 239 249 232 240 258 262 263 271 269 227 224 221 209 195 182 166 147 131 122 120 121 106 40 303 287 279 292 312 315 319 320 317 313 312 311
202 200 204 216 242 253 266 251 186 228 261 244 230 253 260 263 285 273 229 215 211 196 172 156 146 134 125 124 123 120 120 129 285 293 303 316 323 321 320 317 314 314 312 308
207 207 219 229 241 240 256 261 175 197 257 255 212 236 249 245 250 266 224 177 157 134 129 129 126 121 121 123 124 130 146 195 262 304 317 325 325 319 314 311 310 310 308 304
177 205 225 235 243 245 254 178 138 198 250 256 199 217 226 214 223 215 117 123 127 127 128 128 124 121 126 129 134 146 164 181 305 326 326 327 328 318 305 303 306 307 306 307
192 195 213 223 239 245 214 161 196 230 245 230 200 203 208 209 170 138 145 140 137 135 134 132 125 123 129 137 149 160 157 126 17 351 335 325 316 307 306 304 305 307 307 309
205 207 209 207 224 225 183 201 221 230 237 226 199 193 189 181 173 164 157 152 148 144 140 135 130 131 135 146 162 159 141 96 41 357 332 316 313 312 310 306 308 311 311 315
224 217 216 226 234 231 218 221 229 226 229 220 191 180 176 181 175 165 160 157 154 151 145 142 140 143 150 157 154 145 122 97 68 10 341 333 329 321 318 311 311 313 316 322
216 192 217 235 238 245 242 234 232 223 212 193 181 183 187 180 172 169 164 162 160 154 150 151 152 153 155 155 147 134 116 108 80 43 9 345 324 315 315 315 314 315 321 323
218 213 218 229 228 229 244 246 229 205 206 195 188 197 195 182 174 168 166 163 159 155 153 152 151 151 152 151 142 130 121 114 96 62 25 346 325 320 316 317 317 327 339 338